Вернуться в каталог

LEASAT 1 PKM

АктивенHEO
NORAD 15390·ROCKET BODY·🇺🇸 United States

Запущен Nov 8, 1984 с Cape Canaveral Space Force Station

Loading…

Ближайшие Пролёты (ближайшие 24 часа)

TLE

СвежийSource: Space-Track

Эпоха: Sep 14, 2026, 12:40 UTC

1 15390U 84113E   26257.52794500  .00057197  00000-0  77632-3 0  9996
2 15390  27.0918  55.8084 3367266 313.5698  22.9658  8.75875876824608

Отслеживайте LEASAT 1 PKM в реальном времени с AllMySat

Download on the App Store